(369846) = 2010 VK121 = 2012 JJ41

Discovered at Mount Lemmon on 2008-05-28 by Mt. Lemmon Survey.

Orbit

Orbit type: Main Belt

Note: WebGL enabled browser required.

epoch2022-08-09.0
epoch JD2459800.5
perihelion date2019-11-23.99067
perihelion JD2458811.49067
argument of perihelion (°)256.96576
ascending node (°)222.27258
inclination (°)9.55467
eccentricity0.1612800
perihelion distance (AU)2.2077810
Tisserand w.r.t. Jupiter3.4
ΔV w.r.t. Earth (km/sec)9.8
semimajor axis (AU)2.6323218
mean anomaly (°)228.24210
mean daily motion (°/day)0.23077850
aphelion distance (AU)3.057
period (years)4.27
P-vector [x]-0.47935273
P-vector [y]0.85574079
P-vector [z]0.19475281
Q-vector [x]-0.87049091
Q-vector [y]-0.43537116
Q-vector [z]-0.22955942
absolute magnitude16.99
phase slope0.15
uncertainty0
referenceMPO 722444
observations used236
oppositions10
arc length (days)9117
first opposition used1997
last opposition used2022
residual rms (arc-secs)0.85
perturbers coarse indicatorM-v
perturbers precise indicator003El
first observation date used1997-11-01.0
last observation date used2022-10-18.0
computer nameMPCLINUX
JD of orbit computation2456966.807492
perihelion JD uncertainty (days)1.7690E-04
argument of perihelion uncertainty (°)4.9436E-05
ascending node uncertainty (°)2.4089E-05
inclination uncertainty (°)1.5155E-05
eccentricity uncertainty 4.7129E-08
perihelion distance uncertainty (AU)1.2034E-07
Minimum Orbit Intersection Distances (in AU)
for orbit epoch: 2459800.5, reference: E2022-UA5
Mercury1.89654
Venus1.51013
Earth1.24827
Mars0.67919
Jupiter2.14309
Saturn6.72472
Uranus16.0294
Neptune27.0809

Observations

246 total observations over interval: 1997 11 01.34616 – 2022 10 18.299475
These data are available for download (format description).

Date (UT) J2000 RA J2000 Dec Magn Location Ref
1997 11 01.34616 02 28 55.26 +15 40 14.0 19.5 V 691 – Steward Observatory, Kitt Peak-Spacewatch MPS 473065
1997 11 01.35419 02 28 54.84 +15 40 10.2 19.7 V 691 – Steward Observatory, Kitt Peak-Spacewatch MPS 473065
1997 11 01.36232 02 28 54.37 +15 40 05.5 19.8 V 691 – Steward Observatory, Kitt Peak-Spacewatch MPS 473065
2001 09 28.32494 00 28 21.05 +12 14 52.8 21.4   644 – Palomar Mountain/NEAT MPS 473065
2001 09 28.34550 00 28 20.03 +12 14 43.2 21.4   644 – Palomar Mountain/NEAT MPS 473065
2001 09 28.36771 00 28 18.90 +12 14 32.6 21.2   644 – Palomar Mountain/NEAT MPS 473065
2008 05 28.32993 16 14 01.10 -15 21 59.0 20.5 V G96 – Mt. Lemmon Survey MPS 473065
2008 05 28.33742 16 14 00.63 -15 21 56.8 20.4 V G96 – Mt. Lemmon Survey MPS 473065
2008 05 28.34481 16 14 00.27 -15 21 54.0 20.3 V G96 – Mt. Lemmon Survey MPS 473065
2008 05 28.35211 16 13 59.84 -15 21 51.9 20.8 V G96 – Mt. Lemmon Survey MPS 473065
2008 07 01.27727 15 50 34.77 -13 21 32.9   691 – Steward Observatory, Kitt Peak-Spacewatch MPS 473065
2008 07 01.29033 15 50 34.47 -13 21 31.3   691 – Steward Observatory, Kitt Peak-Spacewatch MPS 473065
2008 07 01.30340 15 50 34.17 -13 21 30.4   691 – Steward Observatory, Kitt Peak-Spacewatch MPS 473065
2010 11 08.28848 04 41 14.50 +17 09 57.6 19.9 V 691 – Steward Observatory, Kitt Peak-Spacewatch MPS 357639
2010 11 08.30618 04 41 13.85 +17 09 50.6 20.2 V 691 – Steward Observatory, Kitt Peak-Spacewatch MPS 357639
2010 11 08.32386 04 41 13.12 +17 09 43.4 20.4 V 691 – Steward Observatory, Kitt Peak-Spacewatch MPS 357639
2010 11 12.28256 04 38 29.52 +16 41 59.2 20.2 V 691 – Steward Observatory, Kitt Peak-Spacewatch MPS 357639
2010 11 12.30026 04 38 28.71 +16 41 51.7 20.2 V 691 – Steward Observatory, Kitt Peak-Spacewatch MPS 357639
2010 11 12.32142 04 38 27.74 +16 41 42.6 20.1 V 691 – Steward Observatory, Kitt Peak-Spacewatch MPS 357639
2010 11 30.27000 04 22 46.16 +14 32 54.5 19.2 V G96 – Mt. Lemmon Survey MPS 459380
2010 11 30.27771 04 22 45.66 +14 32 51.3 19.1 V G96 – Mt. Lemmon Survey MPS 459380
2010 11 30.28524 04 22 45.22 +14 32 48.3 19.2 V G96 – Mt. Lemmon Survey MPS 459380
2010 11 30.29270 04 22 44.79 +14 32 45.0 19.0 V G96 – Mt. Lemmon Survey MPS 459380
2012 04 15.42835 14 34 56.263 -17 05 50.58 20.4 w F51 – Pan-STARRS 1, Haleakala MPS 457585
2012 04 15.44225 14 34 55.571 -17 05 44.53 20.3 w F51 – Pan-STARRS 1, Haleakala MPS 457585
2012 04 15.45610 14 34 54.878 -17 05 38.37 20.5 w F51 – Pan-STARRS 1, Haleakala MPS 457585
2012 04 15.47003 14 34 54.181 -17 05 32.19 20.4 w F51 – Pan-STARRS 1, Haleakala MPS 457585
2012 05 01.29654 14 21 33.33 -15 00 44.1 20.4 V G96 – Mt. Lemmon Survey MPS 457585
2012 05 01.30304 14 21 32.97 -15 00 40.5 20.0 V G96 – Mt. Lemmon Survey MPS 457585
2012 05 01.30959 14 21 32.61 -15 00 37.2 20.1 V G96 – Mt. Lemmon Survey MPS 457585
2012 05 01.31616 14 21 32.29 -15 00 34.2 19.9 V G96 – Mt. Lemmon Survey MPS 457585
2012 05 13.28310 14 12 07.70 -13 26 36.4 20.4 V G96 – Mt. Lemmon Survey MPS 425104
2012 05 13.28951 14 12 07.38 -13 26 33.0 20.1 V G96 – Mt. Lemmon Survey MPS 425104
2012 05 13.29590 14 12 07.09 -13 26 30.4 20.5 V G96 – Mt. Lemmon Survey MPS 425104
2012 05 13.30230 14 12 06.80 -13 26 27.0 20.3 V G96 – Mt. Lemmon Survey MPS 425104
2012 05 17.36096 14 09 22.616 -12 57 05.92 20.7 w F51 – Pan-STARRS 1, Haleakala MPS 425104
2012 05 17.37509 14 09 22.054 -12 56 59.87 20.8 w F51 – Pan-STARRS 1, Haleakala MPS 425104
2012 05 17.38919 14 09 21.482 -12 56 53.92 20.7 w F51 – Pan-STARRS 1, Haleakala MPS 425104
2012 05 17.40330 14 09 20.901 -12 56 48.07 20.6 w F51 – Pan-STARRS 1, Haleakala MPS 425104
2014 10 13.39562 02 04 18.75 +16 28 27.1 20.0 V G96 – Mt. Lemmon Survey MPS 540391
2014 10 13.40395 02 04 18.39 +16 28 23.5 20.1 V G96 – Mt. Lemmon Survey MPS 540391
2014 10 13.41229 02 04 17.96 +16 28 19.5 20.0 V G96 – Mt. Lemmon Survey MPS 540391
2014 10 13.42063 02 04 17.54 +16 28 15.7 20.1 V G96 – Mt. Lemmon Survey MPS 540391
2014 10 17.35223 02 01 09.14 +15 57 47.8 19.8 V G96 – Mt. Lemmon Survey MPS 540391
2014 10 17.35767 02 01 08.85 +15 57 44.9 19.6 V G96 – Mt. Lemmon Survey MPS 540391
2014 10 17.36312 02 01 08.58 +15 57 42.6 19.6 V G96 – Mt. Lemmon Survey MPS 540391
2014 10 17.36856 02 01 08.30 +15 57 39.8 19.8 V G96 – Mt. Lemmon Survey MPS 540391
2014 10 25.48377 01 54 16.915 +14 49 21.11 20.0 w F51 – Pan-STARRS 1, Haleakala MPS 544199
2014 10 25.49604 01 54 16.259 +14 49 14.61 20.0 w F51 – Pan-STARRS 1, Haleakala MPS 544199
2014 10 25.50831 01 54 15.605 +14 49 08.06 20.0 w F51 – Pan-STARRS 1, Haleakala MPS 544199
2014 10 26.38861 01 53 30.34 +14 41 23.4 19.5 r G45 – Space Surveillance Telescope, Atom Site MPS 558463
2014 10 26.38868 01 53 30.32 +14 41 23.2 19.8 r G45 – Space Surveillance Telescope, Atom Site MPS 558463
2014 10 26.39980 01 53 29.75 +14 41 16.9 20.2 r G45 – Space Surveillance Telescope, Atom Site MPS 558463
2014 10 26.39987 01 53 29.76 +14 41 17.3 19.6 r G45 – Space Surveillance Telescope, Atom Site MPS 558463
2014 10 26.41103 01 53 29.14 +14 41 10.8 20.0 r G45 – Space Surveillance Telescope, Atom Site MPS 558463
2014 10 26.42212 01 53 28.57 +14 41 05.6 19.9 r G45 – Space Surveillance Telescope, Atom Site MPS 558463
2014 10 26.42219 01 53 28.59 +14 41 04.9 19.9 r G45 – Space Surveillance Telescope, Atom Site MPS 558463
2014 10 26.43334 01 53 28.00 +14 40 59.0 20.1 r G45 – Space Surveillance Telescope, Atom Site MPS 558463
2014 11 01.20294 01 48 35.90 +13 49 41.2 19.9 V G96 – Mt. Lemmon Survey MPS 544804
2014 11 01.21173 01 48 35.46 +13 49 36.1 19.7 V G96 – Mt. Lemmon Survey MPS 544804
2014 11 01.22338 01 48 34.85 +13 49 30.0 20.0 V G96 – Mt. Lemmon Survey MPS 544804
2014 11 01.23218 01 48 34.43 +13 49 25.4 19.8 V G96 – Mt. Lemmon Survey MPS 544804
2014 11 17.20032 01 37 04.31 +11 32 55.6 20.1 r G45 – Space Surveillance Telescope, Atom Site MPS 558463
2014 11 17.20493 01 37 04.20 +11 32 54.7 20.6 r G45 – Space Surveillance Telescope, Atom Site MPS 558463
2014 11 17.21544 01 37 03.76 +11 32 49.0 20.2 r G45 – Space Surveillance Telescope, Atom Site MPS 558463
2014 11 17.21959 01 37 03.63 +11 32 46.8 20.0 r G45 – Space Surveillance Telescope, Atom Site MPS 558463
2014 11 18.19357 01 36 30.65 +11 25 14.6 20.3 r G45 – Space Surveillance Telescope, Atom Site MPS 558463
2014 11 18.20648 01 36 30.22 +11 25 08.2 20.3 r G45 – Space Surveillance Telescope, Atom Site MPS 558463
2014 11 18.20870 01 36 30.20 +11 25 07.7 20.5 r G45 – Space Surveillance Telescope, Atom Site MPS 558463
2014 11 18.21284 01 36 30.00 +11 25 05.9 20.4 r G45 – Space Surveillance Telescope, Atom Site MPS 558463
2014 11 19.07451 01 36 02.18 +11 18 31.8   691 – Steward Observatory, Kitt Peak-Spacewatch MPS 547550
2014 11 19.11214 01 36 00.95 +11 18 15.0   691 – Steward Observatory, Kitt Peak-Spacewatch MPS 547550
2014 11 19.17043 01 35 58.97 +11 17 48.6   691 – Steward Observatory, Kitt Peak-Spacewatch MPS 547550
2014 11 25.08559 01 33 16.50 +10 35 58.0 20.7 V 691 – Steward Observatory, Kitt Peak-Spacewatch MPS 549547
2014 11 25.12292 01 33 15.62 +10 35 42.6 20.4 V 691 – Steward Observatory, Kitt Peak-Spacewatch MPS 549547
2014 11 25.16025 01 33 14.71 +10 35 29.0 20.5 V 691 – Steward Observatory, Kitt Peak-Spacewatch MPS 549547
2014 11 28.37866 01 32 09.391 +10 15 17.08 20.6 i F51 – Pan-STARRS 1, Haleakala MPS 551464
2014 11 28.38982 01 32 09.197 +10 15 13.06 20.5 i F51 – Pan-STARRS 1, Haleakala MPS 551464
2014 11 28.40109 01 32 08.965 +10 15 08.79 20.6 i F51 – Pan-STARRS 1, Haleakala MPS 551464
2014 11 28.41239 01 32 08.750 +10 15 04.83 20.7 i F51 – Pan-STARRS 1, Haleakala MPS 551464
2014 12 23.08636 01 33 20.45 +08 47 57.9 21.3 V G96 – Mt. Lemmon Survey MPS 559972
2014 12 23.09148 01 33 20.56 +08 47 58.2 20.8 V G96 – Mt. Lemmon Survey MPS 559972
2014 12 23.09658 01 33 20.65 +08 47 58.5 21.0 V G96 – Mt. Lemmon Survey MPS 559972
2014 12 23.10170 01 33 20.79 +08 47 58.7 20.9 V G96 – Mt. Lemmon Survey MPS 559972
2016 03 02.47050 12 26 41.402 -14 22 36.81 20.3 r F51 – Pan-STARRS 1, Haleakala MPS 689887
2016 03 02.48238 12 26 40.967 -14 22 33.57 20.3 r F51 – Pan-STARRS 1, Haleakala MPS 689887
2016 03 02.49401 12 26 40.542 -14 22 30.37 20.5 r F51 – Pan-STARRS 1, Haleakala MPS 689887
